Weather History for HESH - September, 2013

Change the Weather History Date:

Wednesday, September 4, 2013

  Actual Average Record
Temperature  
Mean Temperature 90 °F -  
Max Temperature 98 °F - - ()
Min Temperature 82 °F - - ()
Cooling Degree Days 25    
Growing Degree Days 40 (Base 50)    
Moisture  
Dew Point 61 °F    
Average Humidity 39    
Maximum Humidity 62    
Minimum Humidity 22    
Precipitation  
Precipitation 0.00 in - - ()
Sea Level Pressure  
Sea Level Pressure 29.71 in    
Wind  
Wind Speed 11 mph ()    
Max Wind Speed 16 mph    
Max Gust Speed -    
T = Trace of Precipitation, MM = Missing Value Source: Averaged Metar Reports

Daily Weather History Graph

Daily Weather History Graph

Search for Another Location

Airport or City:

Trip Planner

Search our weather history database for the weather conditions in past years. The results will help you decide how hot, cold, wet, or windy it might be!

Date:

Astronomy

Sep. 04, 2013 Rise Set
Actual Time 5:22 AM EET 6:00 PM EET
Civil Twilight 4:58 AM EET 6:23 PM EET
Nautical Twilight 4:30 AM EET 6:51 PM EET
Astronomical Twilight 4:02 AM EET 7:19 PM EET
Moon 4:15 AM EET (9/4) 5:09 PM EET (9/4)
Length of Visible Light 13h 25m
Length of Day
12h 37m
Waning Crescent, 1% of the Moon is Illuminated
Sep 4
Waning Crescent
Sep 5
New
Sep 12
First Quarter
Sep 19
Full
Sep 27
Last Quarter

Hourly Weather History & Observations

Time (EET) Temp. Heat Index Dew Point Humidity Pressure Visibility Wind Dir Wind Speed Gust Speed Precip Events Conditions
12:00 AM 87.8 °F 90.4 °F 66.2 °F 49% 29.74 in - North 13.8 mph - N/A   Clear
1:00 AM 86.0 °F 84.2 °F 53.6 °F 33% 29.74 in - North 13.8 mph - N/A   Clear
2:00 AM 86.0 °F 89.4 °F 68.0 °F 55% 29.74 in - North 13.8 mph - N/A   Clear
3:00 AM 84.2 °F 87.3 °F 68.0 °F 58% 29.74 in - North 13.8 mph - N/A   Clear
4:00 AM 82.4 °F 85.4 °F 68.0 °F 62% 29.74 in - North 12.7 mph - N/A   Clear
5:00 AM 82.4 °F 85.4 °F 68.0 °F 62% 29.74 in - North 13.8 mph - N/A   Clear
6:00 AM 82.4 °F 85.4 °F 68.0 °F 62% 29.74 in - North 10.4 mph - N/A   Clear
7:00 AM 86.0 °F 90.4 °F 69.8 °F 58% 29.77 in - North 13.8 mph - N/A   Clear
8:00 AM 87.8 °F 90.4 °F 66.2 °F 49% 29.77 in - North 15.0 mph - N/A   Clear
9:00 AM 89.6 °F 92.2 °F 66.2 °F 46% 29.77 in - NNE 11.5 mph - N/A   Clear
10:00 AM 91.4 °F 94.0 °F 66.2 °F 43% 29.77 in - NNE 11.5 mph - N/A   Clear
11:00 AM 95.0 °F 96.0 °F 62.6 °F 34% 29.74 in - NE 10.4 mph - N/A   Clear
12:00 PM 96.8 °F 96.2 °F 59.0 °F 28% 29.71 in - NE 10.4 mph - N/A   Clear
1:00 PM 98.6 °F 98.5 °F 59.0 °F 27% 29.71 in - NNE 12.7 mph - N/A   Clear
2:00 PM 96.8 °F 96.2 °F 59.0 °F 28% 29.68 in - NNE 11.5 mph - N/A   Clear
3:00 PM 98.6 °F 98.5 °F 59.0 °F 27% 29.68 in - NNE 9.2 mph - N/A   Clear
4:00 PM 98.6 °F 96.4 °F 53.6 °F 22% 29.65 in - North 12.7 mph - N/A   Clear
5:00 PM 96.8 °F 95.1 °F 55.4 °F 25% 29.65 in - NNE 10.4 mph - N/A   Clear
6:00 PM 93.2 °F - 51.8 °F 24% 29.65 in - North 15.0 mph - N/A   Clear
7:00 PM 93.2 °F - 51.8 °F 24% 29.68 in - North 13.8 mph - N/A   Clear
8:00 PM 91.4 °F 89.1 °F 53.6 °F 28% 29.68 in - North 16.1 mph - N/A   Clear
9:00 PM 91.4 °F - 48.2 °F 23% 29.68 in - North 12.7 mph - N/A   Clear
10:00 PM 87.8 °F 87.6 °F 60.8 °F 40% 29.68 in - North 11.5 mph - N/A   Clear
11:00 PM 87.8 °F 86.1 °F 55.4 °F 33% 29.68 in - North 11.5 mph - N/A   Clear